Location: Bakhuizen
(52.8696°N, 5.4575°E)
Time: 00:06:08
(UTC+00:00)

Cosmos 1833 - Pass Details

Date: 29 September 2021
Orbit: 834 x 864 km, 70.9° (Epoch: 26 October)

Event Time Altitude Azimuth Distance (km) Brightness Sun altitude
Rises 18:32:41 0° 326° (NNW) 3,401 8.1 -11.8°
Reaches altitude 10° 18:35:09 10° 324° (NW) 2,460 7.4 -12.2°
Maximum altitude 18:40:42 62° 245° (WSW) 939 4.7 -13.0°
Drops below altitude 10° 18:46:13 10° 166° (SSE) 2,442 6.3 -13.8°
Sets 18:48:40 0° 163° (SSE) 3,373 7.0 -14.2°
